Weather in Meseda

Russia / Chelyabinsk Oblast     54°46′16″N   58°41′50″E
temp.,
°C
wind,
m/s
gust,
m/s
humid.,
%
clouds,
%
prec.,
mm/h
press.,
hPa
HPBL,
m
26 february, fri
fri2623:00−25se11930 0.0 103020
02:00−25se11890 0.0 102920
05:00−25se11850 0.0 103020
08:00−25se12840 0.0 102820
11:00−16se127520 0.0 1027245
14:00−12sse126644 0.0 1025711
17:00−13sse227823 0.0 1024586
20:00−21se229321 0.0 102425
27 february, sat
sat2723:00−23se229455 0.0 102328
02:00−23se229435 0.0 102134
05:00−23se339645 0.0 101975
08:00−22se3494100 0.0 1015156
11:00−18se4594100 0.5 1013277
14:00−17se4592100 0.8 1010365
17:00−17se3686100 0.8 1008414
20:00−17se3494100 0.1 1007189
28 february, sun
sun2823:00−16se2295100 0.3 100576
02:00−14se2294100 0.0 100448
05:00−12se2296100 0.3 100355
08:00−10se1296100 0.5 100236
11:00−5sse1293100 0.9 1002222
14:00−3s1195100 0.4 1002271
17:00−3ene0196100 1.1 1003191
20:00−8ese2297100 0.8 100550
1 march, mon
mon123:00−12se229491 0.9 100826
02:00−13sse129576 0.1 101028
05:00−12s119688 0.3 101321
08:00−13w119795 0.3 101520
11:00−10nw119297 0.5 1016276
14:00−9nw2288100 0.2 1017452
17:00−10nw2293100 0.4 1018394
20:00−15nw119899 0.1 101921
2 march, tue
tue223:00−18nw1110098 0.2 102120
02:00−20s1110096 0.0 102020
05:00−21wsw1110077 0.0 102120
08:00−21ssw1110048 0.0 102120
11:00−12wsw128631 0.0 1019213
14:00−7wnw23760 0.0 1016560
17:00−8w24820 0.0 1015592
20:00−14ssw23920 0.0 101530